[[{"header":{"parameterUnit":"m.s-1","parameterCategory":1,"la1":30.2991,"la2":30.254,"lo1":-89.0895,"lo2":-89.0444,"dy":0.0017,"dx":0.0017,"nx":28,"ny":28,"refTime":"2025-02-06T09:00:00:Z","depth":0,"parameterNumber":2,"parameterNumberName":"U-component_of_WINDS"},"data":[0,0,0,0,0,0,0,0,0,0,0,0,0,0,0,0,0,0,0,0,0,0,0,0,0,0,0,0,0,0,0,0,0,0,0,0,0,0,0,0,0,0,0,0,0,0,0,0,0,0,0,0,0,0,0,0,0,0,-0.7962,-0.7962,0,-0.797,-0.7971,-0.7971,-0.7976,-0.7976,-0.7976,-0.7976,-0.7984,-0.7984,-0.7984,0,0,0,0,0,0,0,0,0,0,0,0,0,-0.795,-0.795,-0.7962,-0.7962,-0.7962,-0.797,-0.7971,-0.7971,-0.7976,-0.7976,-0.7976,-0.7976,-0.7984,-0.7984,-0.7984,0,0,0,0,0,0,0,0,0,0,0,0,0,-0.7957,-0.795,-0.7962,-0.7966,-0.7966,-0.797,-0.7971,-0.7971,-0.7976,-0.7976,-0.7976,-0.7976,-0.7984,-0.7984,-0.7984,-0.7986,0,0,-0.7985,-0.7986,0,0,0,0,0,0,0,0,-0.7956,-0.7957,-0.7965,-0.7966,-0.7966,-0.7972,-0.7969,-0.7976,-0.7976,-0.7972,-0.7976,-0.7976,-0.798,-0.7981,-0.7982,-0.7986,-0.7986,-0.7985,-0.7986,-0.7986,-0.7986,0,0,0,0,0,0,0,-0.7956,-0.7957,-0.7965,-0.7965,-0.7966,-0.7967,-0.7968,-0.7971,-0.7976,-0.7972,-0.7973,-0.7974,-0.798,-0.7982,-0.7982,-0.7987,-0.7985,-0.7986,-0.7986,-0.7986,-0.7991,-0.7991,0,0,0,0,0,0,-0.7955,-0.7956,-0.7965,-0.7966,-0.7961,-0.7967,-0.7968,-0.797,-0.7976,-0.7977,-0.7974,-0.7974,-0.7981,-0.7982,-0.7983,-0.7984,-0.7986,-0.7986,-0.7986,-0.7991,-0.7991,-0.7991,0,0,0,0,0,0,-0.7955,-0.7956,-0.7965,-0.7961,-0.7962,-0.7967,-0.7969,-0.797,-0.7972,-0.7977,-0.7978,-0.7974,-0.7981,-0.7982,-0.7985,-0.7984,-0.7986,-0.7986,-0.7991,-0.7991,-0.7991,-0.7987,0,0,0,0,0,0,-0.7954,-0.7955,-0.7956,-0.7961,-0.7963,-0.7967,-0.7969,-0.797,-0.7972,-0.7973,-0.7978,-0.7978,-0.7981,-0.7984,-0.7985,-0.7985,-0.7987,-0.7991,-0.7991,-0.7991,-0.7987,-0.7987,-0.7986,0,0,0,0,0,-0.7954,-0.7955,-0.7956,-0.7957,-0.7963,-0.7967,-0.7968,-0.7971,-0.7972,-0.7973,-0.7976,-0.7978,-0.7984,-0.7984,-0.7985,-0.7985,-0.7991,-0.7991,-0.7991,-0.7987,-0.7987,-0.7986,0,0,0,0,0,0,-0.795,-0.7955,-0.7957,-0.796,-0.7963,-0.7968,-0.7969,-0.7971,-0.7974,-0.7974,-0.7978,-0.7979,-0.7981,-0.7983,-0.7984,-0.7986,-0.7988,-0.7988,-0.7985,-0.7984,-0.7984,-0.7983,-0.7987,0,0,0,0,0,-0.7949,-0.7952,-0.7956,-0.7958,-0.796,-0.7964,-0.7966,-0.7968,-0.7971,-0.7973,-0.7976,-0.7979,-0.7981,-0.7983,-0.7986,-0.7988,-0.7988,-0.7988,-0.7987,-0.7987,-0.7987,-0.7988,-0.7987,-0.7991,-0.7991,-0.7991,0,0,-0.7948,-0.7951,-0.7953,-0.7958,-0.796,-0.7962,-0.7965,-0.7967,-0.7969,-0.7973,-0.7975,-0.7978,-0.7981,-0.7983,-0.7985,-0.7986,-0.7986,-0.7987,-0.7987,-0.7987,-0.7987,-0.7987,-0.7987,-0.7991,-0.7991,-0.7991,0,0,-0.7947,-0.795,-0.7952,-0.7954,-0.7958,-0.7961,-0.7961,-0.7965,-0.7967,-0.797,-0.7973,-0.7974,-0.7979,-0.7981,-0.7983,-0.7982,-0.7984,-0.7983,-0.7981,-0.7981,-0.7981,-0.7981,-0.798,-0.798,-0.7983,-0.7983,-0.7983,0,-0.7945,-0.7949,-0.7952,-0.7954,-0.7956,-0.796,-0.7961,-0.7963,-0.7968,-0.7969,-0.797,-0.7975,-0.7978,-0.798,-0.798,-0.7981,-0.7981,-0.7982,-0.7981,-0.7981,-0.798,-0.798,-0.7979,-0.7983,-0.7983,-0.7983,-0.7983,0,-0.7946,-0.7948,-0.7949,-0.7953,-0.7955,-0.7957,-0.796,-0.7962,-0.7964,-0.7966,-0.7968,-0.7972,-0.7975,-0.7976,-0.7978,-0.7978,-0.7978,-0.798,-0.7982,-0.798,-0.7979,-0.7979,-0.7982,-0.7982,-0.7982,-0.7982,0,0,-0.7943,-0.7949,-0.7949,-0.795,-0.7955,-0.7956,-0.7958,-0.7961,-0.7962,-0.7965,-0.7966,-0.7969,-0.7971,-0.7973,-0.7975,-0.7975,-0.7974,-0.7977,-0.7977,-0.7976,-0.7974,-0.7972,-0.7972,-0.7975,-0.7975,-0.7975,-0.7973,0,-0.7943,-0.7946,-0.7949,-0.7951,-0.7952,-0.7955,-0.7957,-0.7959,-0.7961,-0.7963,-0.7966,-0.7968,-0.797,-0.7971,-0.7971,-0.7974,-0.7973,-0.7974,-0.7976,-0.7976,-0.7975,-0.7972,-0.797,-0.7968,-0.7973,-0.7973,-0.7973,0,-0.7943,-0.7945,-0.7947,-0.795,-0.7951,-0.7952,-0.7955,-0.7957,-0.7959,-0.7961,-0.7963,-0.7965,-0.7966,-0.7968,-0.797,-0.797,-0.7971,-0.7973,-0.7973,-0.7973,-0.7974,-0.7972,-0.7968,-0.7968,-0.7973,-0.7973,-0.7973,0,-0.794,-0.7944,-0.7945,-0.7946,-0.795,-0.7951,-0.7953,-0.7956,-0.7957,-0.7959,-0.796,-0.7962,-0.7963,-0.7965,-0.7968,-0.7969,-0.7969,-0.7971,-0.797,-0.797,-0.797,-0.797,-0.7966,-0.7971,-0.7971,-0.7971,-0.7971,0,-0.7939,-0.794,-0.7944,-0.7945,-0.7946,-0.7949,-0.795,-0.7952,-0.7954,-0.7955,-0.7958,-0.7959,-0.7963,-0.7964,-0.7966,-0.7967,-0.7968,-0.7969,-0.7969,-0.7968,-0.7968,-0.7969,-0.7969,-0.7971,-0.7971,-0.7971,-0.7971,0,-0.7936,-0.7939,-0.7941,-0.7944,-0.7945,-0.7945,-0.7948,-0.7949,-0.7951,-0.7953,-0.7953,-0.7956,-0.7958,-0.7961,-0.7964,-0.7965,-0.7965,-0.7966,-0.7964,-0.7965,-0.7963,-0.7963,-0.796,-0.7959,-0.7965,-0.7965,-0.7965,0,-0.7935,-0.7936,-0.7939,-0.794,-0.7942,-0.7943,-0.7944,-0.7947,-0.7948,-0.7951,-0.7952,-0.7953,-0.7955,-0.7957,-0.796,-0.7962,-0.7963,-0.7961,-0.7963,-0.7962,-0.7962,-0.7962,-0.7962,-0.7961,-0.7961,-0.7961,-0.7961,0,-0.7933,-0.7934,-0.7936,-0.7938,-0.7939,-0.7941,-0.7943,-0.7943,-0.7946,-0.7947,-0.7949,-0.795,-0.7952,-0.7954,-0.7956,-0.7958,-0.796,-0.796,-0.796,-0.7959,-0.7958,-0.7958,-0.7963,-0.796,-0.796,-0.796,-0.796,-0.796,-0.7931,-0.7932,-0.7934,-0.7935,-0.7937,-0.7938,-0.7939,-0.7941,-0.7942,-0.7944,-0.7946,-0.7947,-0.7949,-0.7952,-0.7954,-0.7955,-0.7956,-0.7955,-0.7955,-0.7955,-0.7955,-0.7957,-0.7955,-0.7955,-0.7955,-0.7955,-0.7955,0,-0.7929,-0.793,-0.7932,-0.7934,-0.7935,-0.7936,-0.7938,-0.7939,-0.794,-0.7942,-0.7943,-0.7945,-0.7946,-0.7948,-0.795,-0.795,-0.7951,-0.795,-0.795,-0.795,-0.7954,-0.7954,-0.795,-0.795,-0.795,-0.795,-0.795,-0.795,-0.7928,-0.7929,-0.793,-0.7932,-0.7933,-0.7934,-0.7935,-0.7936,-0.7937,-0.7939,-0.794,-0.7941,-0.7943,-0.7945,-0.7946,-0.7947,-0.7947,-0.7946,-0.7947,-0.795,-0.795,-0.7951,-0.7951,-0.7946,-0.7946,-0.7943,-0.7943,-0.7943]},{"header":{"parameterUnit":"m.s-1","parameterCategory":1,"la1":30.2991,"la2":30.254,"lo1":-89.0895,"lo2":-89.0444,"dy":0.0017,"dx":0.0017,"nx":28,"ny":28,"refTime":"2025-02-06T09:00:00:Z","depth":0,"parameterNumber":3,"parameterNumberName":"V-component_of_WINDS"},"data":[0,0,0,0,0,0,0,0,0,0,0,0,0,0,0,0,0,0,0,0,0,0,0,0,0,0,0,0,0,0,0,0,0,0,0,0,0,0,0,0,0,0,0,0,0,0,0,0,0,0,0,0,0,0,0,0,0,0,3.5265,3.5265,0,3.5294,3.5294,3.5294,3.5287,3.5286,3.5285,3.5285,3.5311,3.5313,3.5314,0,0,0,0,0,0,0,0,0,0,0,0,0,3.52,3.5202,3.5265,3.5265,3.5266,3.5294,3.5294,3.5295,3.5287,3.5286,3.5285,3.5285,3.5311,3.5312,3.5314,0,0,0,0,0,0,0,0,0,0,0,0,0,3.5229,3.5202,3.5265,3.5265,3.5265,3.5294,3.5294,3.5295,3.5287,3.5286,3.5285,3.5284,3.531,3.5312,3.5314,3.5343,0,0,3.532,3.5321,0,0,0,0,0,0,0,0,3.5227,3.5231,3.5265,3.5265,3.5266,3.5286,3.5281,3.5311,3.5287,3.5279,3.5285,3.5284,3.5303,3.5306,3.5313,3.5344,3.5345,3.532,3.5321,3.5322,3.5322,0,0,0,0,0,0,0,3.5225,3.523,3.5276,3.5265,3.5266,3.5263,3.5266,3.5287,3.5295,3.5279,3.5279,3.5282,3.5303,3.5311,3.5313,3.5346,3.532,3.5322,3.5323,3.5323,3.5403,3.5404,0,0,0,0,0,0,3.5223,3.5228,3.5275,3.5277,3.5244,3.5265,3.5268,3.528,3.5295,3.5297,3.5283,3.5282,3.5308,3.5311,3.5314,3.535,3.5322,3.5324,3.5325,3.5402,3.5403,3.5404,0,0,0,0,0,0,3.5222,3.5228,3.5274,3.5253,3.5258,3.5267,3.528,3.5281,3.5289,3.5298,3.5299,3.529,3.5308,3.5312,3.5336,3.5351,3.5324,3.5326,3.5401,3.5403,3.5404,3.5422,0,0,0,0,0,0,3.522,3.5227,3.5239,3.5253,3.526,3.5296,3.5281,3.5282,3.5293,3.5291,3.5305,3.5306,3.5307,3.5334,3.5338,3.5353,3.5328,3.54,3.5402,3.5403,3.542,3.5424,3.5427,0,0,0,0,0,3.5218,3.5241,3.5239,3.5245,3.5274,3.5297,3.5301,3.5303,3.5294,3.5305,3.5311,3.5306,3.5349,3.5336,3.5341,3.5357,3.5399,3.5401,3.5403,3.5419,3.5423,3.5427,0,0,0,0,0,0,3.5227,3.5243,3.5241,3.527,3.5283,3.5296,3.531,3.5308,3.5322,3.532,3.5321,3.5324,3.535,3.5356,3.5342,3.5386,3.5372,3.5376,3.5382,3.5387,3.539,3.5389,3.5329,0,0,0,0,0,3.5233,3.5251,3.5264,3.5288,3.5295,3.5302,3.5312,3.5312,3.5325,3.533,3.5337,3.5349,3.5365,3.5376,3.5391,3.542,3.5424,3.5434,3.5437,3.544,3.5443,3.5461,3.5466,3.5412,3.5412,3.5412,0,0,3.5244,3.5255,3.5267,3.529,3.53,3.5319,3.5306,3.5326,3.534,3.5332,3.5357,3.5363,3.5376,3.5404,3.5416,3.5409,3.5459,3.5443,3.5445,3.5447,3.5464,3.5469,3.5473,3.5413,3.5413,3.5413,0,0,3.5275,3.5285,3.5308,3.5318,3.5334,3.5338,3.5343,3.5358,3.5362,3.5387,3.5382,3.5398,3.5425,3.5436,3.5444,3.548,3.5476,3.5485,3.5504,3.552,3.5525,3.5529,3.5543,3.5548,3.5488,3.5488,3.5488,0,3.5287,3.5316,3.5319,3.534,3.5351,3.5347,3.5369,3.5379,3.5398,3.5405,3.5397,3.5433,3.5441,3.5472,3.5481,3.5488,3.5494,3.5484,3.5524,3.5528,3.5531,3.5545,3.555,3.5489,3.5489,3.5489,3.5489,0,3.5331,3.5351,3.5367,3.5388,3.54,3.5422,3.5428,3.544,3.5439,3.5445,3.547,3.548,3.5498,3.5505,3.5504,3.5536,3.5532,3.5524,3.551,3.5538,3.5551,3.5556,3.5491,3.549,3.549,3.5489,0,0,3.5369,3.5392,3.5398,3.5408,3.5425,3.544,3.5462,3.5481,3.5492,3.5505,3.5523,3.5547,3.5541,3.5551,3.5551,3.5565,3.5595,3.5556,3.5556,3.5564,3.5632,3.5639,3.5645,3.5592,3.5593,3.5594,3.5632,0,3.5403,3.5442,3.5446,3.5481,3.55,3.5496,3.5515,3.5527,3.5533,3.5549,3.5555,3.5573,3.5562,3.5568,3.5582,3.5588,3.5609,3.5585,3.5609,3.561,3.5608,3.5651,3.5658,3.5694,3.5636,3.5637,3.5638,0,3.5447,3.5464,3.5502,3.5518,3.5526,3.5543,3.5562,3.5577,3.5591,3.5594,3.5606,3.5604,3.5626,3.561,3.5641,3.5625,3.5634,3.5639,3.564,3.5644,3.5627,3.5657,3.5705,3.5711,3.5645,3.5645,3.5644,0,3.5473,3.5505,3.5532,3.5541,3.5559,3.5572,3.558,3.5593,3.5605,3.562,3.5628,3.5645,3.5655,3.5668,3.5671,3.5659,3.5702,3.5686,3.5705,3.5705,3.5715,3.5715,3.5767,3.5719,3.5719,3.5719,3.5719,0,3.5512,3.5535,3.5545,3.5561,3.5588,3.5591,3.5617,3.5624,3.5636,3.5654,3.565,3.5667,3.567,3.5687,3.5689,3.5714,3.5718,3.5721,3.5722,3.5723,3.5722,3.573,3.5728,3.572,3.572,3.572,3.5719,0,3.5546,3.5553,3.5582,3.5598,3.5603,3.5622,3.5635,3.5651,3.5656,3.5679,3.5685,3.5693,3.5713,3.5717,3.574,3.5742,3.5773,3.577,3.5769,3.5769,3.5788,3.5787,3.5848,3.5857,3.5802,3.5802,3.5803,0,3.557,3.5589,3.5607,3.562,3.5629,3.5649,3.5662,3.5665,3.5678,3.5696,3.571,3.573,3.5747,3.5779,3.5786,3.5804,3.5803,3.5823,3.5805,3.5806,3.5805,3.5804,3.5807,3.5826,3.5827,3.5827,3.5828,0,3.5614,3.5617,3.5636,3.5657,3.5672,3.5688,3.5703,3.5713,3.5718,3.5733,3.5754,3.5767,3.5792,3.5812,3.583,3.5837,3.5834,3.5833,3.5839,3.5841,3.584,3.5842,3.5779,3.5832,3.5832,3.5831,3.5831,3.5831,3.5645,3.5662,3.5679,3.57,3.5712,3.5727,3.5743,3.5751,3.5769,3.5791,3.5791,3.5815,3.5829,3.5853,3.5862,3.588,3.5874,3.5881,3.5884,3.5886,3.5889,3.5836,3.5883,3.5883,3.5883,3.5883,3.5883,0,3.569,3.5701,3.5721,3.5743,3.576,3.5756,3.5773,3.5787,3.5808,3.5822,3.5839,3.5864,3.5883,3.5893,3.5912,3.5925,3.5924,3.593,3.593,3.5932,3.5892,3.5886,3.5931,3.5931,3.593,3.593,3.593,3.593,3.5716,3.5745,3.575,3.5785,3.5795,3.582,3.583,3.5843,3.5854,3.5883,3.59,3.5906,3.5918,3.5939,3.5957,3.5959,3.5967,3.5974,3.5976,3.5939,3.5934,3.593,3.5924,3.5975,3.5975,3.6014,3.6014,3.6014]}]]